Theta_e
299 299 299 299 301 301 302 303 308 308 324 329 328 327 328 328 330 331 334 334 332 327 325 325 324 323 322 323 322 321 320 319 316 313 312 310 311 311 310 309 306 311 316
297 297 300 301 302 302 301 301 302 303 305 311 320 329 328 328 329 328 329 330 330 330 329 326 325 324 323 322 321 320 318 318 316 314 308 312 310 306 309 304 305 305 313
297 298 300 301 302 302 303 303 303 302 302 303 305 308 322 325 327 326 326 328 330 330 330 329 328 326 323 322 320 319 318 320 314 314 314 303 304 303 305 302 302 303 304
296 299 301 302 302 303 304 304 303 303 303 302 302 302 305 317 317 315 317 315 323 326 327 327 326 326 323 322 322 320 319 317 318 312 315 313 308 306 305 303 302 303 303
297 299 301 304 305 305 304 303 304 305 304 304 301 301 301 303 304 304 305 308 313 316 319 323 324 323 322 321 321 319 317 319 320 318 316 315 313 308 307 309 308 304 304
297 299 303 305 303 303 303 303 303 303 304 305 305 302 301 301 303 304 303 304 308 309 310 315 319 320 320 320 320 319 318 317 319 321 320 317 313 311 307 305 309 303 303
297 299 302 302 301 301 301 302 302 301 302 303 303 303 303 303 302 303 303 304 305 305 306 308 311 313 316 318 319 318 318 317 319 320 319 317 316 317 313 310 308 302 300
297 299 301 300 299 299 299 299 300 300 301 302 302 302 302 302 301 300 301 300 301 303 303 305 306 307 308 311 312 312 312 310 313 315 314 315 314 313 312 310 306 299 297
298 299 299 298 298 297 297 298 298 299 300 299 297 295 295 295 294 294 294 294 294 299 299 300 299 300 301 303 305 305 306 308 307 306 305 305 302 302 302 304 305 304 300
298 298 297 297 296 296 295 295 296 296 295 295 295 293 293 292 292 291 290 291 291 292 293 294 293 293 294 297 298 298 303 303 301 300 299 298 297 296 298 298 299 299 298
298 296 296 296 296 295 294 293 294 294 294 293 292 291 291 291 290 290 289 289 290 290 291 291 291 291 291 292 293 293 297 298 296 296 295 294 295 295 295 295 295 294 294
297 296 295 295 294 293 292 292 293 293 292 292 291 291 291 290 289 289 289 289 289 290 289 290 290 289 290 289 290 290 292 293 293 293 294 293 294 292 293 292 291 291 291
297 295 295 294 293 292 292 292 292 291 291 291 290 290 290 289 288 289 289 289 289 289 289 289 288 288 289 288 288 288 289 291 291 292 291 291 291 290 289 288 286 287 289
297 295 294 293 292 292 291 291 291 291 291 290 290 289 291 292 291 292 291 291 290 289 289 289 288 288 287 288 288 289 289 289 290 290 290 290 289 288 284 286 287 287 287
295 295 293 292 292 291 291 290 290 290 290 289 288 288 292 292 292 291 291 291 291 291 292 291 290 289 289 289 286 288 288 288 287 288 288 290 292 293 290 286 285 285 283
295 294 294 292 292 291 291 291 290 290 290 288 288 290 291 291 291 291 290 290 289 290 290 291 291 291 292 293 292 286 283 283 285 283 282 284 285 287 291 291 291 289 286
295 294 293 293 292 291 292 290 289 289 288 288 288 291 291 290 290 289 289 288 288 289 288 288 288 288 290 292 291 288 280 278 276 276 278 282 283 283 282 286 287 287 289
294 293 292 291 291 291 290 290 289 289 289 288 290 290 290 289 289 288 287 287 287 285 284 280 279 279 286 289 288 286 273 274 277 278 278 279 280 283 282 280 280 280 279
295 293 291 291 290 290 289 289 288 289 288 289 290 290 290 288 288 286 285 285 280 276 275 274 277 279 281 288 287 282 278 278 278 279 279 280 280 287 287 280 279 278 278
292 290 289 289 289 288 288 288 287 287 289 289 289 290 290 288 286 286 285 284 278 275 276 278 277 286 280 288 287 281 279 276 278 278 278 285 283 286 285 279 277 276 277
289 289 289 288 289 288 288 286 286 286 289 290 289 289 289 287 286 285 283 283 283 283 277 278 277 278 280 280 287 286 280 279 279 278 278 279 284 284 284 284 277 279 279
289 289 287 286 287 288 287 285 285 288 290 289 289 288 288 288 287 284 280 279 277 276 275 275 276 277 277 284 285 286 285 283 279 278 278 278 284 283 284 282 284 285 281
290 289 287 286 286 287 287 286 288 290 290 289 288 287 287 286 284 280 279 278 276 275 274 274 274 276 278 277 285 285 285 285 279 280 281 284 284 283 280 282 284 282 277
289 289 288 286 285 286 287 287 290 290 289 288 287 286 284 281 280 280 279 277 275 274 275 275 275 275 276 277 278 280 278 282 281 281 277 280 281 282 281 279 278 278 277
290 289 288 287 286 286 286 288 290 290 288 288 286 283 282 282 278 277 276 276 275 276 274 275 276 275 275 278 281 281 280 278 281 280 276 274 275 275 276 276 276 276 277
289 288 288 287 287 287 287 289 291 290 288 287 284 281 278 277 276 276 277 283 283 285 286 284 279 279 282 283 285 285 284 284 284 277 274 272 273 273 275 275 275 275 276
Wind_Speed
0 4 4 6 5 6 5 4 4 1 4 3 3 2 4 3 3 4 5 5 4 6 6 5 5 5 6 8 6 4 7 5 2 1 3 3 5 7 7 7 7 8 8
4 5 5 5 4 3 4 4 3 2 2 1 1 2 2 2 2 2 4 5 5 5 5 5 5 6 4 6 6 6 3 3 5 3 1 3 3 4 8 5 6 7 4
9 7 6 5 5 4 3 3 2 2 2 2 2 2 2 2 2 1 2 3 5 5 7 6 5 5 4 5 5 5 8 8 3 5 3 1 5 2 2 3 4 4 4
5 4 6 5 5 4 4 5 5 5 4 4 0 2 2 3 1 1 2 3 4 5 5 6 6 5 4 5 5 4 5 4 7 2 5 3 2 3 4 2 2 2 4
9 9 7 7 6 5 5 5 6 6 6 6 4 2 1 2 2 3 5 4 5 5 5 5 5 5 3 4 5 4 5 5 4 4 3 4 4 2 3 8 3 1 3
8 7 6 6 5 5 6 5 6 6 6 6 6 5 4 3 3 2 3 3 3 4 6 5 4 2 3 5 4 5 5 5 4 4 4 4 3 3 4 6 6 4 3
9 9 8 7 5 5 4 4 6 5 5 6 6 5 5 5 5 4 3 4 3 3 6 6 6 4 5 3 2 3 3 3 3 1 3 3 4 3 3 3 4 3 1
7 9 8 7 6 6 4 5 5 5 5 6 6 6 6 4 4 4 3 3 3 3 5 5 5 6 6 5 5 3 4 2 4 3 4 3 2 2 1 2 3 2 3
8 9 8 7 6 5 4 5 6 5 6 6 5 6 6 6 5 5 5 3 4 4 5 5 5 6 6 6 5 4 4 5 4 5 4 3 3 3 3 3 2 2 4
8 7 7 7 5 6 5 6 6 6 5 6 5 5 5 5 5 5 6 5 5 5 5 6 6 5 6 5 5 4 4 5 3 3 4 3 1 3 3 2 2 1 1
9 7 7 6 6 6 6 5 5 6 5 5 5 5 5 5 5 5 5 5 5 5 5 5 5 5 6 6 5 5 5 5 5 4 4 4 3 3 3 3 3 3 2
8 7 7 7 7 6 6 6 5 5 5 5 5 5 5 5 5 5 5 5 5 5 5 5 5 5 6 6 6 6 6 6 6 5 5 5 4 5 5 3 4 4 3
7 7 7 7 6 6 6 5 5 5 5 5 5 5 5 5 5 5 5 5 5 5 6 6 6 6 5 6 6 6 6 8 8 5 6 6 5 6 4 4 4 4 3
10 7 6 7 6 6 6 6 5 5 5 5 5 5 4 4 4 4 5 5 5 5 6 6 5 6 6 6 7 9 9 10 10 7 8 7 6 5 4 5 5 4 4
8 8 8 7 7 7 6 5 5 5 5 5 5 4 4 4 5 5 5 6 6 5 6 6 6 6 6 5 7 9 9 7 7 8 8 8 9 12 8 3 4 5 4
9 8 7 8 8 8 7 6 5 5 5 5 5 4 5 5 5 5 6 6 6 6 6 7 7 6 7 14 14 9 6 6 6 6 5 5 8 9 10 9 10 6 4
9 9 10 9 8 8 8 7 6 5 5 5 5 5 5 6 6 6 6 5 5 5 6 6 6 7 7 14 13 14 5 5 4 4 3 5 4 7 6 9 10 10 10
8 8 7 6 7 6 6 7 6 6 5 5 5 5 5 6 6 6 6 5 3 5 4 4 5 4 5 12 12 12 4 4 4 5 5 5 6 3 6 5 5 5 5
6 6 6 6 6 8 8 7 6 6 6 5 5 6 6 6 6 6 5 4 3 3 3 1 5 5 5 8 8 6 4 5 4 4 4 5 5 8 7 4 4 4 3
6 7 7 6 8 6 8 8 6 6 6 6 6 6 6 6 6 6 6 2 2 3 2 4 4 6 5 7 7 4 2 3 3 3 4 7 4 7 6 3 2 3 2
7 7 8 8 8 8 8 7 6 6 6 6 6 6 6 6 7 6 3 4 3 3 2 3 2 3 3 4 4 5 2 2 2 2 2 3 7 6 5 4 1 2 0
7 7 7 6 6 7 8 7 6 5 7 7 6 6 6 6 5 6 4 5 5 4 3 2 1 1 2 3 4 2 3 2 1 1 1 4 7 5 4 1 3 3 4
7 6 7 7 5 6 7 7 6 7 7 7 6 6 7 6 5 5 5 3 4 4 3 3 2 3 1 2 3 4 3 2 1 1 4 8 5 3 3 3 3 4 2
6 5 6 6 6 6 6 6 8 8 8 8 7 6 7 6 5 4 4 4 4 4 4 4 4 3 2 3 2 1 2 3 2 3 3 4 4 2 2 2 2 1 1
5 7 7 7 7 6 6 6 9 10 9 7 6 6 5 6 5 4 4 4 4 5 4 4 4 4 4 4 6 5 3 3 4 1 1 2 1 1 1 1 2 2 2
6 6 6 7 8 8 7 8 9 10 9 8 5 6 5 4 4 4 3 6 8 9 9 7 6 4 7 5 8 7 6 5 5 2 1 1 1 2 2 3 3 2 3
Wind_Direction
7 121 121 113 89 49 76 57 112 135 179 171 167 207 229 226 230 220 214 216 218 218 203 215 206 192 205 223 219 221 222 240 188 92 283 271 234 237 237 217 216 227 220
150 129 123 107 80 91 64 59 60 41 34 141 209 190 176 199 220 230 227 221 221 225 229 221 222 206 214 219 211 191 210 237 173 201 99 293 302 256 233 204 236 245 210
169 160 146 136 125 108 96 81 48 19 2 346 17 19 8 8 336 299 273 238 224 222 219 225 229 228 199 227 220 198 202 241 198 213 189 274 235 344 315 262 231 237 220
159 152 154 143 138 127 103 92 90 77 38 20 54 217 191 204 251 327 342 323 316 269 234 228 223 226 199 213 224 204 210 177 242 186 224 229 182 228 298 314 328 278 245
177 170 166 142 122 110 91 83 87 72 61 54 57 83 115 347 350 350 340 350 5 17 348 281 237 228 213 222 217 209 204 202 217 195 178 218 219 213 260 286 262 218 207
168 159 144 127 105 80 75 77 85 67 65 69 63 80 92 95 97 33 19 354 359 11 8 351 339 270 229 221 224 219 211 209 227 203 197 217 208 205 210 248 265 233 236
154 155 149 138 118 95 74 80 80 67 66 77 70 68 69 64 68 50 34 22 7 1 356 0 11 14 9 358 288 236 214 207 211 181 253 246 233 227 195 224 246 246 294
154 153 154 143 131 116 99 91 87 75 56 66 60 53 55 61 55 45 46 36 18 1 352 1 17 19 21 23 29 50 55 42 69 38 2 315 338 338 282 227 164 267 247
159 153 145 141 136 120 102 107 98 78 68 69 66 56 51 53 50 39 38 34 12 4 11 18 27 22 20 17 27 46 40 51 35 47 36 20 23 33 15 355 327 233 275
144 146 146 145 130 124 114 97 91 92 86 74 67 65 59 54 51 48 39 30 13 13 21 24 28 28 27 25 47 50 53 73 50 57 77 56 26 52 58 58 42 43 334
163 158 153 144 136 127 122 112 101 102 86 82 79 74 61 59 60 60 46 37 32 21 28 27 31 32 31 26 53 59 51 68 68 49 71 74 52 65 51 46 59 67 44
162 156 156 150 147 142 136 129 120 111 106 98 91 80 70 62 61 56 47 40 46 35 38 35 41 38 37 34 48 60 53 64 59 45 58 52 52 51 39 46 57 61 41
157 156 154 162 160 152 146 143 136 130 121 110 102 89 83 77 71 65 53 49 51 47 42 43 42 37 38 47 44 54 59 64 56 50 61 50 51 54 47 49 63 52 44
174 174 164 171 167 162 159 153 143 140 129 118 113 106 108 106 98 87 80 66 52 49 60 53 57 56 50 50 54 66 69 72 67 54 59 58 60 65 59 56 48 51 59
182 185 181 175 169 162 158 152 150 144 138 127 125 130 105 95 92 87 84 76 63 57 49 76 65 65 71 68 62 76 81 70 65 49 47 44 67 76 75 74 56 61 63
201 191 177 171 173 168 168 158 154 148 138 138 140 134 113 108 100 92 84 77 65 60 54 48 53 66 72 73 76 76 72 69 70 62 41 41 53 37 49 53 55 79 61
195 190 188 183 173 171 162 162 154 139 138 139 147 132 128 117 108 105 93 75 64 64 57 52 59 55 64 77 78 78 57 63 59 57 39 45 28 43 40 37 42 39 41
193 190 174 162 157 146 142 135 144 146 148 155 142 141 137 126 121 113 102 92 56 61 61 51 48 58 73 82 83 84 63 59 60 64 65 53 21 58 43 27 29 30 30
179 179 160 145 142 149 146 144 150 153 155 156 150 152 146 136 132 116 111 90 83 62 49 33 55 60 42 67 80 79 71 64 51 49 26 64 28 16 38 43 25 23 16
150 151 137 120 134 146 145 150 160 162 167 165 159 154 142 146 138 124 118 111 95 115 94 59 43 67 38 66 75 80 90 70 45 28 17 13 38 5 3 70 34 23 338
144 129 137 153 160 150 150 158 163 180 156 147 148 145 142 141 134 129 119 145 149 145 93 97 53 52 30 354 62 88 89 84 71 43 355 335 337 360 2 71 79 260 338
138 143 137 147 147 152 154 159 173 155 146 153 153 144 141 147 146 155 166 155 151 157 165 167 210 278 313 339 325 56 117 119 83 18 293 292 314 341 343 61 287 351 63
147 137 145 148 155 160 163 160 167 161 160 161 161 158 150 154 167 165 167 152 171 176 201 204 220 242 242 297 340 355 1 40 138 253 274 325 312 328 353 310 323 71 76
159 142 147 161 175 174 169 166 167 175 167 171 168 162 165 172 177 185 187 183 188 195 203 211 222 229 233 241 257 272 332 309 326 314 322 307 314 305 302 357 14 7 209
155 164 173 179 188 174 181 171 182 174 174 175 169 168 178 180 185 199 192 200 218 190 193 214 199 196 233 230 214 205 227 228 248 126 8 348 341 317 310 300 288 286 282
163 177 183 179 185 180 182 184 180 179 175 182 178 189 184 187 182 184 215 235 220 221 226 215 194 218 228 225 225 233 254 271 288 110 201 259 252 252 278 271 273 261 277